| time (UTC) | temp C | wind direction | speed KPH | gust KPH | rain 1hr cm | rain 24hr cm | rain mn cm | humidity % | barometer mb |
| 20260505100958 | 11 | 221 | 1.6 | 1.6 | 0.00 | 0.00 | 0.00 | 86 | 1012.1 |
| 20260505100455 | 11 | 221 | 0.0 | 1.6 | 0.00 | 0.00 | 0.00 | 85 | 1012.1 |
| 20260505095951 | 11 | 220 | 0.0 | 0.0 | 0.00 | 0.00 | 0.00 | 84 | 1011.9 |
| 20260505095448 | 11 | 226 | 1.6 | 1.6 | 0.00 | 0.00 | 0.00 | 84 | 1011.9 |
| 20260505094944 | 11 | 232 | 0.0 | 1.6 | 0.00 | 0.00 | 0.00 | 85 | 1012.1 |
| 20260505094441 | 11 | 233 | 0.0 | 0.0 | 0.00 | 0.00 | 0.00 | 86 | 1012.3 |
| 20260505093937 | 11 | 234 | 0.0 | 0.0 | 0.00 | 0.00 | 0.00 | 85 | 1012.4 |
| 20260505093434 | 11 | 233 | 0.0 | 0.0 | 0.00 | 0.00 | 0.00 | 85 | 1012.2 |
| 20260505092931 | 11 | 233 | 0.0 | 0.0 | 0.00 | 0.00 | 0.00 | 84 | 1012.1 |
| 20260505092429 | 11 | 235 | 0.0 | 0.0 | 0.00 | 0.00 | 0.00 | 83 | 1012.1 |
| 20260505091926 | 11 | 224 | 0.0 | 1.6 | 0.00 | 0.00 | 0.00 | 83 | 1012.2 |
| 20260505091424 | 12 | 221 | 0.0 | 0.0 | 0.00 | 0.00 | 0.00 | 83 | 1012.1 |
| 20260505090921 | 12 | 248 | 0.0 | 0.0 | 0.00 | 0.00 | 0.00 | 82 | 1011.8 |
| 20260505090420 | 12 | 238 | 0.0 | 0.0 | 0.00 | 0.00 | 0.00 | 82 | 1011.7 |
| 20260505085917 | 12 | 225 | 0.0 | 0.0 | 0.00 | 0.00 | 0.00 | 82 | 1011.8 |
| 20260505085415 | 12 | 212 | 1.6 | 1.6 | 0.00 | 0.00 | 0.00 | 82 | 1011.7 |
| 20260505084913 | 12 | 231 | 0.0 | 0.0 | 0.00 | 0.00 | 0.00 | 81 | 1011.9 |
| 20260505084410 | 12 | 231 | 0.0 | 0.0 | 0.00 | 0.00 | 0.00 | 79 | 1011.8 |
| 20260505083908 | 12 | 231 | 0.0 | 0.0 | 0.00 | 0.00 | 0.00 | 79 | 1011.8 |
| 20260505083406 | 13 | 231 | 0.0 | 0.0 | 0.00 | 0.00 | 0.00 | 78 | 1011.6 |
| 20260505082901 | 13 | 231 | 0.0 | 0.0 | 0.00 | 0.00 | 0.00 | 77 | 1011.9 |
| 20260505082357 | 13 | 231 | 0.0 | 0.0 | 0.00 | 0.00 | 0.00 | 76 | 1011.8 |
| 20260505081854 | 13 | 231 | 0.0 | 0.0 | 0.00 | 0.00 | 0.00 | 75 | 1011.7 |
| 20260505081351 | 13 | 230 | 0.0 | 0.0 | 0.00 | 0.00 | 0.00 | 75 | 1011.7 |
| 20260505080848 | 13 | 225 | 0.0 | 1.6 | 0.00 | 0.00 | 0.00 | 74 | 1011.7 |
| 20260505080344 | 14 | 243 | 0.0 | 0.0 | 0.00 | 0.00 | 0.00 | 74 | 1011.8 |
| 20260505075839 | 14 | 242 | 0.0 | 1.6 | 0.00 | 0.00 | 0.00 | 73 | 1011.7 |
| 20260505075337 | 15 | 243 | 0.0 | 0.0 | 0.00 | 0.00 | 0.00 | 71 | 1011.7 |
| 20260505074834 | 15 | 243 | 0.0 | 0.0 | 0.00 | 0.00 | 0.00 | 70 | 1011.6 |
| 20260505074331 | 15 | 243 | 0.0 | 0.0 | 0.00 | 0.00 | 0.00 | 69 | 1011.7 |
| 20260505073828 | 15 | 235 | 1.6 | 1.6 | 0.00 | 0.00 | 0.00 | 69 | 1011.5 |
| 20260505073326 | 15 | 233 | 0.0 | 1.6 | 0.00 | 0.00 | 0.00 | 69 | 1011.6 |
| 20260505072823 | 15 | 234 | 0.0 | 1.6 | 0.00 | 0.00 | 0.00 | 68 | 1011.5 |
| 20260505072319 | 15 | 245 | 0.0 | 0.0 | 0.00 | 0.00 | 0.00 | 68 | 1011.4 |
| 20260505071815 | 15 | 246 | 0.0 | 1.6 | 0.00 | 0.00 | 0.00 | 68 | 1011.4 |
| 20260505071312 | 15 | 247 | 0.0 | 0.0 | 0.00 | 0.00 | 0.00 | 67 | 1011.3 |
| 20260505070810 | 15 | 247 | 0.0 | 0.0 | 0.00 | 0.00 | 0.00 | 67 | 1011.4 |
| 20260505070306 | 15 | 221 | 1.6 | 3.2 | 0.00 | 0.00 | 0.00 | 67 | 1011.6 |
| 20260505065801 | 15 | 235 | 0.0 | 0.0 | 0.00 | 0.00 | 0.00 | 68 | 1011.5 |
| 20260505065258 | 15 | 234 | 0.0 | 0.0 | 0.00 | 0.00 | 0.00 | 67 | 1011.4 |
| 20260505064755 | 15 | 235 | 0.0 | 0.0 | 0.00 | 0.00 | 0.00 | 66 | 1011.5 |
| 20260505064252 | 15 | 235 | 0.0 | 0.0 | 0.00 | 0.00 | 0.00 | 66 | 1011.4 |
| 20260505063750 | 15 | 248 | 0.0 | 0.0 | 0.00 | 0.00 | 0.00 | 66 | 1011.5 |
| 20260505063246 | 15 | 241 | 0.0 | 1.6 | 0.00 | 0.00 | 0.00 | 66 | 1011.5 |
| 20260505062743 | 15 | 238 | 0.0 | 4.8 | 0.00 | 0.00 | 0.00 | 66 | 1011.5 |
| 20260505062240 | 16 | 231 | 3.2 | 4.8 | 0.00 | 0.00 | 0.00 | 65 | 1011.7 |
| 20260505061737 | 16 | 241 | 1.6 | 8.0 | 0.00 | 0.00 | 0.00 | 65 | 1012.1 |
| 20260505061235 | 16 | 224 | 3.2 | 8.0 | 0.00 | 0.00 | 0.00 | 65 | 1011.8 |
| 20260505060732 | 16 | 225 | 4.8 | 4.8 | 0.00 | 0.00 | 0.00 | 65 | 1011.9 |
| 20260505060229 | 15 | 238 | 3.2 | 3.2 | 0.00 | 0.00 | 0.00 | 65 | 1011.8 |
| 20260505055724 | 15 | 242 | 4.8 | 4.8 | 0.00 | 0.00 | 0.00 | 65 | 1011.8 |
| 20260505055221 | 15 | 219 | 6.4 | 8.0 | 0.00 | 0.00 | 0.00 | 66 | 1011.5 |
| 20260505054718 | 15 | 237 | 0.0 | 4.8 | 0.00 | 0.00 | 0.00 | 66 | 1011.8 |
| 20260505054216 | 15 | 241 | 0.0 | 3.2 | 0.00 | 0.00 | 0.00 | 67 | 1011.8 |
| 20260505053714 | 15 | 237 | 0.0 | 1.6 | 0.00 | 0.00 | 0.00 | 67 | 1011.9 |
| 20260505053210 | 15 | 263 | 0.0 | 0.0 | 0.00 | 0.00 | 0.00 | 67 | 1011.7 |
| 20260505052707 | 14 | 266 | 0.0 | 0.0 | 0.00 | 0.00 | 0.00 | 69 | 1011.7 |
| 20260505052204 | 15 | 267 | 0.0 | 0.0 | 0.00 | 0.00 | 0.00 | 70 | 1011.7 |
| 20260505051701 | 15 | 267 | 0.0 | 1.6 | 0.00 | 0.00 | 0.00 | 70 | 1011.7 |
| 20260505051159 | 15 | 268 | 1.6 | 1.6 | 0.00 | 0.00 | 0.00 | 68 | 1011.9 |
| 20260505050657 | 15 | 236 | 1.6 | 1.6 | 0.00 | 0.00 | 0.00 | 65 | 1011.6 |
| 20260505050155 | 15 | 236 | 0.0 | 0.0 | 0.00 | 0.00 | 0.00 | 65 | 1011.6 |
| 20260505041625 | 14 | 262 | 0.0 | 0.0 | 0.00 | 0.00 | 0.00 | 66 | 1011.5 |
| 20260505041122 | 15 | 262 | 0.0 | 0.0 | 0.00 | 0.00 | 0.00 | 65 | 1011.3 |
| 20260505040619 | 15 | 262 | 0.0 | 0.0 | 0.00 | 0.00 | 0.00 | 65 | 1011.4 |
| 20260505040116 | 15 | 262 | 0.0 | 0.0 | 0.00 | 0.00 | 0.00 | 65 | 1011.6 |
| 20260505035613 | 15 | 262 | 0.0 | 0.0 | 0.00 | 0.00 | 0.00 | 64 | 1011.3 |
| 20260505035109 | 15 | 263 | 0.0 | 0.0 | 0.00 | 0.00 | 0.00 | 63 | 1011.5 |
| 20260505034606 | 15 | 263 | 0.0 | 0.0 | 0.00 | 0.00 | 0.00 | 63 | 1011.5 |
| 20260505034103 | 15 | 264 | 0.0 | 0.0 | 0.00 | 0.00 | 0.00 | 62 | 1011.5 |
| 20260505033559 | 15 | 254 | 0.0 | 0.0 | 0.00 | 0.00 | 0.00 | 62 | 1011.4 |
| 20260505033058 | 16 | 265 | 0.0 | 1.6 | 0.00 | 0.00 | 0.00 | 59 | 1011.4 |
| 20260505032555 | 16 | 250 | 0.0 | 0.0 | 0.00 | 0.00 | 0.00 | 59 | 1011.5 |
| 20260505032051 | 16 | 283 | 1.6 | 3.2 | 0.00 | 0.00 | 0.00 | 58 | 1011.5 |
| 20260505031549 | 16 | 303 | 3.2 | 4.8 | 0.00 | 0.00 | 0.00 | 58 | 1011.5 |
| 20260505031045 | 16 | 252 | 1.6 | 3.2 | 0.00 | 0.00 | 0.00 | 58 | 1011.4 |
| 20260505030542 | 16 | 250 | 3.2 | 9.7 | 0.00 | 0.00 | 0.00 | 57 | 1011.3 |
| 20260505030038 | 17 | 252 | 0.0 | 8.0 | 0.00 | 0.00 | 0.00 | 57 | 1011.1 |
| 20260505025534 | 17 | 234 | 1.6 | 4.8 | 0.00 | 0.00 | 0.00 | 57 | 1011.3 |
| 20260505025033 | 17 | 249 | 1.6 | 9.7 | 0.00 | 0.00 | 0.00 | 56 | 1011.2 |
| 20260505024530 | 17 | 241 | 3.2 | 12.9 | 0.00 | 0.00 | 0.00 | 57 | 1010.9 |
| 20260505024027 | 17 | 160 | 6.4 | 12.9 | 0.00 | 0.00 | 0.00 | 56 | 1011.0 |
| 20260505023524 | 17 | 231 | 4.8 | 8.0 | 0.00 | 0.00 | 0.00 | 56 | 1010.9 |
| 20260505023021 | 17 | 164 | 4.8 | 11.3 | 0.00 | 0.00 | 0.00 | 56 | 1010.9 |
| 20260505022519 | 17 | 233 | 1.6 | 8.0 | 0.00 | 0.00 | 0.00 | 56 | 1011.0 |
| 20260505022016 | 17 | 122 | 4.8 | 11.3 | 0.00 | 0.00 | 0.00 | 56 | 1010.9 |
| 20260505021512 | 17 | 249 | 1.6 | 9.7 | 0.00 | 0.00 | 0.00 | 56 | 1010.9 |
| 20260505021009 | 17 | 237 | 4.8 | 8.0 | 0.00 | 0.00 | 0.00 | 56 | 1011.3 |
| 20260505020503 | 17 | 247 | 4.8 | 12.9 | 0.00 | 0.00 | 0.00 | 55 | 1011.1 |
| 20260505020000 | 17 | 235 | 6.4 | 9.7 | 0.00 | 0.00 | 0.00 | 55 | 1011.0 |
| 20260505015458 | 17 | 223 | 8.0 | 11.3 | 0.00 | 0.00 | 0.00 | 56 | 1011.2 |
| 20260505014954 | 17 | 208 | 6.4 | 9.7 | 0.00 | 0.00 | 0.00 | 56 | 1011.1 |
| 20260505014451 | 17 | 227 | 4.8 | 11.3 | 0.00 | 0.00 | 0.00 | 56 | 1011.0 |
| 20260505013949 | 17 | 172 | 9.7 | 12.9 | 0.00 | 0.00 | 0.00 | 55 | 1010.9 |
| 20260505013445 | 17 | 225 | 4.8 | 8.0 | 0.00 | 0.00 | 0.00 | 56 | 1010.9 |
| 20260505012943 | 17 | 261 | 3.2 | 8.0 | 0.00 | 0.00 | 0.00 | 56 | 1011.4 |
| 20260505012441 | 17 | 245 | 1.6 | 14.5 | 0.00 | 0.00 | 0.00 | 56 | 1011.2 |
| 20260505011937 | 17 | 231 | 3.2 | 8.0 | 0.00 | 0.00 | 0.00 | 55 | 1011.3 |
| 20260505011433 | 17 | 223 | 3.2 | 9.7 | 0.00 | 0.00 | 0.00 | 55 | 1011.0 |
| 20260505010930 | 17 | 226 | 4.8 | 8.0 | 0.00 | 0.00 | 0.00 | 54 | 1011.0 |
| 20260505010426 | 17 | 260 | 1.6 | 8.0 | 0.00 | 0.00 | 0.00 | 55 | 1010.9 |
| 20260505005922 | 18 | 248 | 1.6 | 12.9 | 0.00 | 0.00 | 0.00 | 54 | 1010.6 |
| 20260505005419 | 18 | 177 | 6.4 | 9.7 | 0.00 | 0.00 | 0.00 | 53 | 1010.7 |
| 20260505004917 | 18 | 232 | 4.8 | 9.7 | 0.00 | 0.00 | 0.00 | 52 | 1010.8 |
| 20260505004413 | 18 | 257 | 3.2 | 8.0 | 0.00 | 0.00 | 0.00 | 52 | 1010.6 |
| 20260505003910 | 18 | 203 | 3.2 | 12.9 | 0.00 | 0.00 | 0.00 | 52 | 1010.7 |
| 20260505003407 | 18 | 262 | 4.8 | 12.9 | 0.00 | 0.00 | 0.00 | 52 | 1010.7 |
| 20260505002904 | 18 | 211 | 1.6 | 9.7 | 0.00 | 0.00 | 0.00 | 52 | 1010.6 |
| 20260505002400 | 18 | 172 | 4.8 | 8.0 | 0.00 | 0.00 | 0.00 | 51 | 1010.6 |
| 20260505001859 | 19 | 246 | 3.2 | 9.7 | 0.00 | 0.00 | 0.00 | 50 | 1010.5 |
| 20260505001355 | 19 | 221 | 8.0 | 11.3 | 0.00 | 0.00 | 0.00 | 49 | 1010.6 |
| 20260505000853 | 20 | 227 | 1.6 | 8.0 | 0.00 | 0.00 | 0.00 | 48 | 1010.4 |
| 20260505000351 | 20 | 235 | 1.6 | 8.0 | 0.00 | 0.00 | 0.00 | 47 | 1010.6 |
| 20260504235847 | 20 | 261 | 1.6 | 8.0 | 0.00 | 0.00 | 0.00 | 47 | 1010.3 |
| 20260504235344 | 21 | 200 | 4.8 | 12.9 | 0.00 | 0.00 | 0.00 | 45 | 1010.5 |
| 20260504234840 | 21 | 240 | 3.2 | 8.0 | 0.00 | 0.00 | 0.00 | 45 | 1010.4 |
| 20260504234338 | 21 | 225 | 8.0 | 17.7 | 0.00 | 0.00 | 0.00 | 43 | 1010.2 |
| 20260504233835 | 21 | 233 | 9.7 | 12.9 | 0.00 | 0.00 | 0.00 | 43 | 1010.5 |
| 20260504233330 | 21 | 242 | 9.7 | 14.5 | 0.00 | 0.00 | 0.00 | 42 | 1010.3 |
| 20260504232827 | 21 | 198 | 14.5 | 22.5 | 0.00 | 0.00 | 0.00 | 42 | 1010.3 |
| 20260504232324 | 22 | 253 | 11.3 | 16.1 | 0.00 | 0.00 | 0.00 | 42 | 1010.2 |
| 20260504231821 | 22 | 227 | 8.0 | 16.1 | 0.00 | 0.00 | 0.00 | 42 | 1010.3 |
| 20260504231318 | 22 | 249 | 8.0 | 17.7 | 0.00 | 0.00 | 0.00 | 42 | 1010.3 |
| 20260504230814 | 22 | 265 | 12.9 | 22.5 | 0.00 | 0.00 | 0.00 | 41 | 1010.3 |
| 20260504230312 | 22 | 276 | 6.4 | 16.1 | 0.00 | 0.00 | 0.00 | 42 | 1010.4 |
| 20260504225810 | 22 | 243 | 11.3 | 14.5 | 0.00 | 0.00 | 0.00 | 41 | 1010.3 |
| 20260504225306 | 22 | 277 | 11.3 | 22.5 | 0.00 | 0.00 | 0.00 | 41 | 1010.3 |
| 20260504224804 | 22 | 225 | 17.7 | 24.1 | 0.00 | 0.00 | 0.00 | 41 | 1010.4 |
| 20260504224301 | 22 | 235 | 11.3 | 25.7 | 0.00 | 0.00 | 0.00 | 40 | 1010.4 |
| 20260504223757 | 22 | 252 | 16.1 | 24.1 | 0.00 | 0.00 | 0.00 | 40 | 1010.3 |
| 20260504223253 | 22 | 223 | 14.5 | 25.7 | 0.00 | 0.00 | 0.00 | 41 | 1010.4 |
| 20260504222750 | 22 | 250 | 8.0 | 17.7 | 0.00 | 0.00 | 0.00 | 42 | 1010.5 |
| 20260504222246 | 22 | 275 | 14.5 | 17.7 | 0.00 | 0.00 | 0.00 | 40 | 1010.4 |
| 20260504221744 | 22 | 249 | 14.5 | 20.9 | 0.00 | 0.00 | 0.00 | 40 | 1010.4 |
| 20260504221241 | 22 | 258 | 14.5 | 29.0 | 0.00 | 0.00 | 0.00 | 40 | 1010.6 |
| 20260504220738 | 22 | 232 | 11.3 | 17.7 | 0.00 | 0.00 | 0.00 | 40 | 1010.5 |
| 20260504220235 | 22 | 204 | 9.7 | 17.7 | 0.00 | 0.00 | 0.00 | 41 | 1010.4 |
| 20260504215732 | 22 | 205 | 17.7 | 24.1 | 0.00 | 0.00 | 0.00 | 39 | 1010.4 |
| 20260504215229 | 23 | 244 | 14.5 | 17.7 | 0.00 | 0.00 | 0.00 | 39 | 1010.7 |
| 20260504214724 | 23 | 269 | 11.3 | 17.7 | 0.00 | 0.00 | 0.00 | 40 | 1010.5 |
| 20260504214216 | 22 | 243 | 14.5 | 24.1 | 0.00 | 0.00 | 0.00 | 39 | 1010.6 |
| 20260504213712 | 22 | 225 | 11.3 | 20.9 | 0.00 | 0.00 | 0.00 | 40 | 1010.7 |
| 20260504213209 | 22 | 243 | 14.5 | 25.7 | 0.00 | 0.00 | 0.00 | 40 | 1010.3 |
| 20260504212706 | 22 | 259 | 14.5 | 24.1 | 0.00 | 0.00 | 0.00 | 40 | 1010.5 |
| 20260504212203 | 22 | 199 | 12.9 | 17.7 | 0.00 | 0.00 | 0.00 | 41 | 1010.6 |
| 20260504211700 | 22 | 204 | 9.7 | 12.9 | 0.00 | 0.00 | 0.00 | 39 | 1010.4 |
| 20260504211156 | 22 | 216 | 9.7 | 17.7 | 0.00 | 0.00 | 0.00 | 41 | 1010.5 |
| 20260504210654 | 22 | 237 | 11.3 | 22.5 | 0.00 | 0.00 | 0.00 | 39 | 1010.5 |
| 20260504210150 | 22 | 238 | 14.5 | 16.1 | 0.00 | 0.00 | 0.00 | 41 | 1010.4 |
| 20260504205648 | 22 | 234 | 14.5 | 29.0 | 0.00 | 0.00 | 0.00 | 39 | 1010.4 |
| 20260504205145 | 22 | 230 | 12.9 | 25.7 | 0.00 | 0.00 | 0.00 | 41 | 1010.6 |
| 20260504204643 | 22 | 230 | 6.4 | 24.1 | 0.00 | 0.00 | 0.00 | 39 | 1010.5 |
| 20260504204142 | 22 | 281 | 12.9 | 17.7 | 0.00 | 0.00 | 0.00 | 40 | 1010.7 |
| 20260504203640 | 22 | 233 | 17.7 | 24.1 | 0.00 | 0.00 | 0.00 | 40 | 1010.7 |
| 20260504203137 | 22 | 258 | 17.7 | 29.0 | 0.00 | 0.00 | 0.00 | 40 | 1010.7 |
| 20260504202632 | 22 | 226 | 12.9 | 20.9 | 0.00 | 0.00 | 0.00 | 38 | 1010.6 |
| 20260504202129 | 22 | 249 | 9.7 | 17.7 | 0.00 | 0.00 | 0.00 | 39 | 1010.8 |
| 20260504201625 | 22 | 243 | 12.9 | 27.4 | 0.00 | 0.00 | 0.00 | 41 | 1010.9 |
| 20260504201124 | 22 | 210 | 14.5 | 16.1 | 0.00 | 0.00 | 0.00 | 39 | 1010.9 |
| 20260504200620 | 22 | 213 | 12.9 | 22.5 | 0.00 | 0.00 | 0.00 | 40 | 1010.9 |
| 20260504200117 | 22 | 257 | 12.9 | 22.5 | 0.00 | 0.00 | 0.00 | 42 | 1011.1 |
| 20260504195613 | 22 | 222 | 14.5 | 17.7 | 0.00 | 0.00 | 0.00 | 40 | 1011.2 |
| 20260504195109 | 22 | 230 | 11.3 | 24.1 | 0.00 | 0.00 | 0.00 | 40 | 1011.1 |
| 20260504194606 | 22 | 261 | 11.3 | 12.9 | 0.00 | 0.00 | 0.00 | 40 | 1011.5 |
| 20260504194102 | 22 | 224 | 12.9 | 17.7 | 0.00 | 0.00 | 0.00 | 40 | 1011.5 |
| 20260504193558 | 22 | 261 | 16.1 | 33.8 | 0.00 | 0.00 | 0.00 | 40 | 1011.6 |
| 20260504193057 | 22 | 238 | 4.8 | 29.0 | 0.00 | 0.00 | 0.00 | 41 | 1011.7 |
| 20260504192555 | 22 | 254 | 17.7 | 32.2 | 0.00 | 0.00 | 0.00 | 41 | 1011.7 |
| 20260504192052 | 21 | 227 | 8.0 | 25.7 | 0.00 | 0.00 | 0.00 | 42 | 1011.6 |
| 20260504191550 | 22 | 236 | 9.7 | 24.1 | 0.00 | 0.00 | 0.00 | 41 | 1012.1 |
| 20260504191046 | 21 | 254 | 16.1 | 20.9 | 0.00 | 0.00 | 0.00 | 40 | 1011.8 |
| 20260504190543 | 22 | 243 | 14.5 | 22.5 | 0.00 | 0.00 | 0.00 | 41 | 1012.1 |
| 20260504190039 | 22 | 237 | 14.5 | 16.1 | 0.00 | 0.00 | 0.00 | 43 | 1012.3 |
| 20260504185536 | 21 | 223 | 19.3 | 24.1 | 0.00 | 0.00 | 0.00 | 41 | 1012.3 |
| 20260504185033 | 21 | 244 | 16.1 | 29.0 | 0.00 | 0.00 | 0.00 | 43 | 1012.3 |
| 20260504184528 | 21 | 245 | 12.9 | 16.1 | 0.00 | 0.00 | 0.00 | 44 | 1012.1 |
| 20260504184023 | 21 | 222 | 14.5 | 20.9 | 0.00 | 0.00 | 0.00 | 40 | 1012.4 |
| 20260504183521 | 21 | 223 | 11.3 | 14.5 | 0.00 | 0.00 | 0.00 | 43 | 1012.4 |
| 20260504183019 | 21 | 223 | 8.0 | 22.5 | 0.00 | 0.00 | 0.00 | 41 | 1012.5 |
| 20260504182515 | 21 | 271 | 9.7 | 20.9 | 0.00 | 0.00 | 0.00 | 40 | 1012.5 |
| 20260504182013 | 21 | 233 | 9.7 | 16.1 | 0.00 | 0.00 | 0.00 | 42 | 1012.5 |
| 20260504181510 | 21 | 228 | 9.7 | 16.1 | 0.00 | 0.00 | 0.00 | 41 | 1012.8 |
| 20260504181009 | 21 | 240 | 16.1 | 22.5 | 0.00 | 0.00 | 0.00 | 43 | 1012.7 |
| 20260504180507 | 21 | 174 | 9.7 | 25.7 | 0.00 | 0.00 | 0.00 | 44 | 1012.8 |
| 20260504180005 | 21 | 236 | 12.9 | 24.1 | 0.00 | 0.00 | 0.00 | 42 | 1013.0 |
| 20260504175502 | 21 | 230 | 11.3 | 22.5 | 0.00 | 0.00 | 0.00 | 41 | 1013.0 |
| 20260504174959 | 20 | 330 | 11.3 | 20.9 | 0.00 | 0.00 | 0.00 | 42 | 1013.2 |
| 20260504174457 | 20 | 219 | 17.7 | 22.5 | 0.00 | 0.00 | 0.00 | 42 | 1013.1 |
| 20260504173954 | 21 | 204 | 11.3 | 17.7 | 0.00 | 0.00 | 0.00 | 43 | 1013.2 |
| 20260504173450 | 20 | 245 | 14.5 | 25.7 | 0.00 | 0.00 | 0.00 | 42 | 1013.1 |
| 20260504172948 | 20 | 219 | 14.5 | 20.9 | 0.00 | 0.00 | 0.00 | 41 | 1013.3 |
| 20260504172443 | 20 | 240 | 17.7 | 24.1 | 0.00 | 0.00 | 0.00 | 42 | 1013.4 |
| 20260504171940 | 20 | 230 | 4.8 | 14.5 | 0.00 | 0.00 | 0.00 | 46 | 1013.3 |
| 20260504171437 | 20 | 237 | 8.0 | 17.7 | 0.00 | 0.00 | 0.00 | 42 | 1013.7 |
| 20260504170934 | 20 | 212 | 14.5 | 16.1 | 0.00 | 0.00 | 0.00 | 41 | 1013.4 |
| 20260504170430 | 20 | 335 | 8.0 | 16.1 | 0.00 | 0.00 | 0.00 | 43 | 1013.6 |
| 20260504160349 | 18 | 246 | 17.7 | 24.1 | 0.00 | 0.00 | 0.00 | 42 | 1014.7 |
| 20260504150814 | 17 | 227 | 9.7 | 17.7 | 0.00 | 0.00 | 0.00 | 45 | 1015.1 |
| 20260504150311 | 17 | 297 | 9.7 | 16.1 | 0.00 | 0.00 | 0.00 | 45 | 1015.1 |
| 20260504141241 | 15 | 257 | 6.4 | 11.3 | 0.00 | 0.00 | 0.00 | 49 | 1015.6 |
| 20260504140737 | 15 | 240 | 8.0 | 12.9 | 0.00 | 0.00 | 0.00 | 49 | 1015.7 |
| 20260504140233 | 15 | 233 | 9.7 | 11.3 | 0.00 | 0.00 | 0.00 | 49 | 1015.7 |
| 20260504130702 | 12 | 251 | 4.8 | 4.8 | 0.00 | 0.00 | 0.00 | 54 | 1016.2 |
| 20260504130158 | 13 | 249 | 0.0 | 8.0 | 0.00 | 0.00 | 0.00 | 54 | 1016.1 |
| 20260504120122 | 10 | 253 | 0.0 | 0.0 | 0.00 | 0.00 | 0.00 | 56 | 1016.1 |
| 20260504110549 | 5 | 267 | 0.0 | 0.0 | 0.00 | 0.00 | 0.00 | 75 | 1016.2 |